Content
SEND FEEDBACK

Daily
Averages
Monthly
Summary
United States of America

MERCER, MISSOURI


Home > North America > United States > Missouri
Elevation: 900 feet     Latitude: 40 33N     Longitude: 093 36W

WEATHER
 
SELECT A DAY
Number of Records: 174,626;   Date Range: 1/1/95 - 10/23/14
 
SHARE

PRINT THIS DATA

[ ← Previous Day ]
WEATHER ALMANAC - FEBRUARY 13, 2013
[ Next Day → ]
[ °C ]   °F
Weather ElementAverageHighLow
Temperature38.3 °F52 °F (2:53 pm)25 °F (4:53 am)
Dewpoint23.6 °F28 °F (10:53 am)19.9 °F (5:53 am)
Humidity58.8 %85 % (4:53 am)31 % (2:53 pm)
Barometer29.82 in29.89 in (1:53 am)29.75 in (9:53 pm)
Wind Speed9.2 mph15 mph (3:53 pm)
Wind Gust17.3 mph (1:53 pm)
Weather ElementAverage
Visibility10 mi
Wind DirectionWSW (258.2 °)

Weather ElementTotal
Precipitation---
Heating Degree Days26.5 (Base 65)
Averaged from 22 records on February 13, 2013
WEATHER CONDITIONS BREAKOUT
WIND DIRECTION BREAKOUT
WEATHER BY HOUR - FEBRUARY 13, 2013
[ °C ]   °F
Local TimeTemperatureDewpointHumidityBarometerVisibilityWind DirectionWind SpeedGust SpeedPrecipitationEventsConditions
1:53 AM28.0 °F21.0 °F75 %29.89 in10.0 miWSW (240°)5.8 mphClear
2:53 AM27.0 °F21.0 °F78 %29.88 in10.0 miWest (260°)5.8 mphClear
3:53 AM26.1 °F21.0 °F81 %29.87 in10.0 miWNW (290°)6.9 mphClear
4:53 AM25.0 °F21.0 °F85 %29.85 in10.0 miWest (280°)5.8 mphClear
5:53 AM25.0 °F19.9 °F81 %29.86 in10.0 miWest (270°)6.9 mphClear
6:53 AM25.0 °F21.0 °F85 %29.86 in10.0 miWest (280°)6.9 mphClear
8:53 AM30.9 °F25.0 °F79 %29.87 in10.0 miWest (270°)9.2 mphClear
9:53 AM36.0 °F27.0 °F70 %29.87 in10.0 miWNW (290°)11.5 mphClear
10:53 AM41.0 °F28.0 °F60 %29.87 in10.0 miWNW (290°)13.8 mphClear
11:53 AM44.1 °F26.1 °F49 %29.86 in10.0 miWNW (290°)9.2 mphClear
12:53 PM48.0 °F23.0 °F37 %29.82 in10.0 miWest (270°)10.4 mphClear
1:53 PM50.0 °F21.0 °F32 %29.80 in10.0 miWSW (250°)12.7 mph17.3 mphClear
2:53 PM52.0 °F21.9 °F31 %29.78 in10.0 miWSW (250°)10.4 mphClear
3:53 PM52.0 °F23.0 °F32 %29.78 in10.0 miWSW (240°)15.0 mphClear
4:53 PM50.0 °F23.0 °F35 %29.78 in10.0 miWest (260°)9.2 mphClear
5:53 PM44.1 °F24.1 °F45 %29.77 in10.0 miWSW (250°)5.8 mphClear
6:53 PM42.1 °F24.1 °F49 %29.78 in10.0 miSW (220°)5.8 mphClear
7:53 PM39.9 °F25.0 °F55 %29.78 in10.0 miSW (220°)6.9 mphMostly Cloudy
8:53 PM37.9 °F25.0 °F60 %29.76 in10.0 miSW (220°)9.2 mphClear
9:53 PM39.9 °F26.1 °F58 %29.75 in10.0 miSW (230°)12.7 mphClear
10:53 PM39.9 °F25.0 °F55 %29.75 in10.0 miWSW (250°)12.7 mphClear
11:53 PM37.9 °F26.1 °F62 %29.75 in10.0 miWest (260°)10.4 mphClear
Hourly data recorded from KLWD, located miles away from Mercer, Missouri







STORIES FROM OUR PARTNERS